Tracking 20623 objects as of 3-Apr-2020
HD Live streaming from Space Station
objects crossing your sky now

LEASAT 4

Track LEASAT 4 now!
LEASAT 4 is classified as:


NORAD ID: 15995
Int'l Code: 1985-076D
Perigee: 36,463.1 km
Apogee: 36,540.5 km
Inclination: 13.0 °
Period: 1,472.4 minutes
Semi major axis: 42872 km
RCS: 16.7803 m2 (large)
Launch date: August 27, 1985
Source: United States (US)
Launch site: AIR FORCE EASTERN TEST RANGE (AFETR)
aabbcc
Your satellite tracking list
Your tracking list is empty




NASA's NSSDC Master Catalog

Two Line Element Set (TLE):
1 15995U 85076D   20094.23335289 -.00000047  00000-0  00000+0 0  9996
2 15995  12.9607 344.0651 0009025 335.9508 212.1201  0.97798058 95969
Source of the keplerian elements: AFSPC